KC5NAM Weather Reports


time (UTC)temp
C
wind
direction
speed
KPH
gust
KPH
rain 1hr
cm
rain 24hr
cm
rain mn
cm
humidity
%
barometer
mb
20260507005537 22 5 8.0 20.9 0.00 0.00 0.00 74 1015.0
20260507005037 22 45 4.8 22.5 0.00 0.00 0.00 74 1014.7
20260507004551 22 13 4.8 22.5 0.00 0.00 0.00 74 1014.7
20260507004036 22 5 8.0 22.5 0.00 0.00 0.00 73 1014.7
20260507003536 22 331 9.7 32.2 0.00 0.00 0.00 73 1014.8
20260507003050 22 0 6.4 32.2 0.00 0.00 0.00 72 1014.5
20260507002537 23 346 8.0 24.1 0.00 0.00 0.00 72 1014.5
20260507002036 23 28 6.4 24.1 0.00 0.00 0.00 72 1014.6
20260507001601 23 314 8.0 24.1 0.00 0.00 0.00 72 1014.5
20260507001037 23 349 6.4 25.7 0.00 0.00 0.00 72 1014.3
20260507000536 24 32 6.4 25.7 0.00 0.00 0.00 71 1014.2
20260507000044 24 306 9.7 22.5 0.00 0.00 0.00 71 1014.1
20260506235537 25 11 8.0 24.1 0.00 0.00 0.00 71 1014.1
20260506235035 25 23 4.8 32.2 0.00 0.00 0.00 71 1014.1
20260506234541 25 329 8.0 32.2 0.00 0.00 0.00 71 1013.9
20260506234038 25 329 6.4 29.0 0.00 0.00 0.00 71 1013.8
20260506233539 26 352 9.7 29.0 0.00 0.00 0.00 70 1013.9
20260506233045 26 5 3.2 22.5 0.00 0.00 0.00 71 1013.9
20260506232536 26 14 6.4 22.5 0.00 0.00 0.00 71 1013.8
20260506232037 27 328 8.0 22.5 0.00 0.00 0.00 71 1013.6
20260506231549 27 349 8.0 22.5 0.00 0.00 0.00 71 1013.5
20260506231036 27 15 6.4 22.5 0.00 0.00 0.00 71 1013.5
20260506230536 28 0 6.4 22.5 0.00 0.00 0.00 71 1013.5
20260506230051 28 67 4.8 20.9 0.00 0.00 0.00 72 1013.3
20260506225536 28 89 3.2 20.9 0.00 0.00 0.00 72 1013.2
20260506225037 28 74 4.8 20.9 0.00 0.00 0.00 73 1013.1
20260506224544 28 0 4.8 16.1 0.00 0.00 0.00 73 1013.0
20260506224037 28 54 6.4 17.7 0.00 0.00 0.00 72 1013.1
20260506223536 28 0 1.6 17.7 0.00 0.00 0.00 72 1012.9
20260506223104 29 0 3.2 20.9 0.00 0.00 0.00 72 1012.8
20260506222537 29 10 4.8 20.9 0.00 0.00 0.00 72 1012.8
20260506222037 29 22 3.2 17.7 0.00 0.00 0.00 72 1012.8
20260506221540 30 0 3.2 17.7 0.00 0.00 0.00 71 1012.8
20260506221036 30 345 3.2 17.7 0.00 0.00 0.00 71 1012.7
20260506220536 30 0 3.2 16.1 0.00 0.00 0.00 70 1012.7
20260506220039 30 327 4.8 16.1 0.00 0.00 0.00 69 1012.5
20260506215537 31 5 0.0 14.5 0.00 0.00 0.00 68 1012.7
20260506215036 31 78 1.6 14.5 0.00 0.00 0.00 67 1012.5
20260506214545 31 5 1.6 9.7 0.00 0.00 0.00 66 1012.7
20260506214037 31 0 1.6 6.4 0.00 0.00 0.00 66 1012.5
20260506213535 31 76 1.6 9.7 0.00 0.00 0.00 65 1012.5
20260506213042 31 0 1.6 9.7 0.00 0.00 0.00 66 1012.4
20260506212537 31 0 1.6 6.4 0.00 0.00 0.00 66 1012.4
20260506212040 31 0 1.6 6.4 0.00 0.00 0.00 66 1012.5
20260506211544 31 91 0.0 6.4 0.00 0.00 0.00 67 1012.7
20260506211036 31 0 1.6 6.4 0.00 0.00 0.00 67 1012.9
20260506210536 31 80 1.6 6.4 0.00 0.00 0.00 66 1012.9
20260506210051 31 0 0.0 6.4 0.00 0.00 0.00 66 1012.9
20260506205536 31 0 1.6 6.4 0.00 0.00 0.00 65 1013.1
20260506205036 31 0 0.0 9.7 0.00 0.00 0.00 65 1013.0
20260506204548 31 0 1.6 9.7 0.00 0.00 0.00 65 1013.0
20260506204036 32 0 0.0 1.6 0.00 0.00 0.00 64 1013.0
20260506203536 32 0 0.0 3.2 0.00 0.00 0.00 63 1013.0
20260506203047 31 0 0.0 4.8 0.00 0.00 0.00 63 1013.1
20260506202536 32 0 0.0 9.7 0.00 0.00 0.00 63 1013.1
20260506202037 32 0 1.6 9.7 0.00 0.00 0.00 63 1013.2
20260506201550 32 82 1.6 11.3 0.00 0.00 0.00 63 1013.1
20260506201040 32 98 1.6 11.3 0.00 0.00 0.00 64 1013.2
20260506200536 32 101 1.6 11.3 0.00 0.00 0.00 64 1013.1
20260506195537 32 0 0.0 11.3 0.00 0.00 0.00 64 1013.1
20260506195036 32 113 1.6 11.3 0.00 0.00 0.00 64 1013.3
20260506194553 32 0 1.6 8.0 0.00 0.00 0.00 66 1013.4
20260506194036 31 74 1.6 8.0 0.00 0.00 0.00 66 1013.2
20260506193540 31 0 1.6 9.7 0.00 0.00 0.00 66 1013.4
20260506193047 31 0 0.0 9.7 0.00 0.00 0.00 65 1013.5
20260506192536 31 73 3.2 9.7 0.00 0.00 0.00 67 1013.6
20260506192038 31 0 0.0 9.7 0.00 0.00 0.00 68 1013.4
20260506191552 31 138 0.0 9.7 0.00 0.00 0.00 68 1013.5
20260506191036 31 87 3.2 8.0 0.00 0.00 0.00 68 1013.6
20260506190535 31 0 0.0 6.4 0.00 0.00 0.00 69 1013.7
20260506190049 30 0 0.0 9.7 0.00 0.00 0.00 68 1013.7
20260506185535 31 0 0.0 12.9 0.00 0.00 0.00 69 1013.7
20260506185039 31 0 1.6 12.9 0.00 0.00 0.00 68 1013.9
20260506184554 31 56 3.2 11.3 0.00 0.00 0.00 68 1013.7
20260506184037 31 75 3.2 11.3 0.00 0.00 0.00 68 1013.9
20260506183537 31 90 4.8 14.5 0.00 0.00 0.00 69 1014.0
20260506183050 31 0 3.2 14.5 0.00 0.00 0.00 69 1013.9
20260506182536 31 66 0.0 11.3 0.00 0.00 0.00 68 1014.2
20260506182036 31 88 3.2 11.3 0.00 0.00 0.00 69 1014.1
20260506181549 31 0 0.0 8.0 0.00 0.00 0.00 68 1014.2
20260506181036 31 95 0.0 9.7 0.00 0.00 0.00 68 1014.3
20260506180536 31 87 1.6 9.7 0.00 0.00 0.00 70 1014.3
20260506180052 31 0 1.6 9.7 0.00 0.00 0.00 69 1014.3
20260506175535 31 5 1.6 12.9 0.00 0.00 0.00 70 1014.3
20260506175036 31 0 3.2 12.9 0.00 0.00 0.00 71 1014.3
20260506174540 30 77 1.6 11.3 0.00 0.00 0.00 72 1014.2
20260506174039 30 0 3.2 8.0 0.00 0.00 0.00 72 1014.3
20260506173538 30 0 0.0 12.9 0.00 0.00 0.00 74 1014.2
20260506173043 29 61 3.2 12.9 0.00 0.00 0.00 74 1014.4
20260506172536 29 76 0.0 9.7 0.00 0.00 0.00 75 1014.4
20260506172037 29 0 0.0 9.7 0.00 0.00 0.00 76 1014.6
20260506171549 28 318 0.0 8.0 0.00 0.00 0.00 77 1014.5
20260506171036 28 0 1.6 6.4 0.00 0.00 0.00 78 1014.5
20260506170537 28 0 0.0 6.4 0.00 0.00 0.00 78 1014.5
20260506170041 28 0 0.0 6.4 0.00 0.00 0.00 79 1014.5
20260506165536 28 5 0.0 4.8 0.00 0.00 0.00 79 1014.5
20260506165036 28 0 0.0 6.4 0.00 0.00 0.00 80 1014.5
20260506164543 28 0 0.0 8.0 0.00 0.00 0.00 80 1014.5
20260506164036 27 0 0.0 8.0 0.00 0.00 0.00 80 1014.5
20260506163536 27 0 0.0 4.8 0.00 0.00 0.00 79 1014.5
20260506163047 27 0 0.0 0.0 0.00 0.00 0.00 81 1014.6
20260506162537 27 0 0.0 1.6 0.00 0.00 0.00 81 1014.6
20260506162039 27 0 0.0 3.2 0.00 0.00 0.00 82 1014.5
20260506161555 27 0 0.0 3.2 0.00 0.00 0.00 82 1014.6
20260506161036 27 0 0.0 3.2 0.00 0.00 0.00 83 1014.5
20260506160540 26 0 0.0 1.6 0.00 0.00 0.00 84 1014.5
20260506160105 26 0 0.0 1.6 0.00 0.00 0.00 84 1014.4
20260506155537 26 0 0.0 1.6 0.00 0.00 0.00 84 1014.4
20260506155036 26 0 0.0 0.0 0.00 0.00 0.00 84 1014.4
20260506154540 26 0 0.0 0.0 0.00 0.00 0.00 84 1014.3
20260506154036 26 0 0.0 0.0 0.00 0.00 0.00 84 1014.1
20260506153536 26 0 0.0 0.0 0.00 0.00 0.00 84 1014.2
20260506153050 26 0 0.0 0.0 0.00 0.00 0.00 84 1014.0
20260506152538 26 0 0.0 0.0 0.00 0.00 0.00 85 1014.0
20260506152037 26 0 0.0 1.6 0.00 0.00 0.00 85 1013.9
20260506151553 26 0 0.0 1.6 0.00 0.00 0.00 86 1013.9
20260506151036 26 0 0.0 3.2 0.00 0.00 0.00 86 1013.7
20260506150536 26 0 0.0 3.2 0.00 0.00 0.00 87 1013.8
20260506150040 26 0 0.0 6.4 0.00 0.00 0.00 88 1013.6
20260506145537 25 0 0.0 6.4 0.00 0.00 0.00 88 1013.5
20260506145037 25 0 1.6 9.7 0.00 0.00 0.00 88 1013.5
20260506144552 25 0 1.6 9.7 0.00 0.00 0.00 88 1013.5
20260506144036 25 110 0.0 4.8 0.00 0.00 0.00 89 1013.4
20260506143536 25 0 0.0 4.8 0.00 0.00 0.00 89 1013.4
20260506143047 25 0 0.0 4.8 0.00 0.00 0.00 89 1013.3
20260506142536 25 0 0.0 4.8 0.00 0.00 0.00 90 1013.2
20260506142036 25 0 0.0 8.0 0.00 0.00 0.00 91 1013.2
20260506141541 25 120 0.0 8.0 0.00 0.00 0.00 91 1013.2
20260506141037 25 0 0.0 12.9 0.00 0.00 0.00 91 1013.0
20260506140537 24 86 0.0 12.9 0.00 0.00 0.00 91 1012.9
20260506140046 24 0 1.6 11.3 0.00 0.00 0.00 91 1012.6
20260506135536 24 115 1.6 14.5 0.00 0.00 0.00 92 1012.5
20260506135036 24 50 4.8 16.1 0.00 0.00 0.00 91 1012.4
20260506134609 24 107 1.6 16.1 0.00 0.00 0.00 92 1012.3
20260506134037 24 164 1.6 14.5 0.00 0.00 0.00 92 1012.4
20260506133601 24 180 1.6 14.5 0.00 0.00 0.00 92 1012.3
20260506133048 24 143 4.8 14.5 0.00 0.00 0.00 92 1012.4
20260506132536 24 146 1.6 11.3 0.00 0.00 0.00 92 1012.3
20260506132036 24 0 0.0 6.4 0.00 0.00 0.00 92 1012.4
20260506131606 24 0 0.0 9.7 0.00 0.00 0.00 92 1012.4
20260506131036 23 0 1.6 9.7 0.00 0.00 0.00 92 1012.4
20260506130536 23 0 0.0 9.7 0.00 0.00 0.00 93 1012.4
20260506130045 23 0 1.6 9.7 0.00 0.00 0.00 93 1012.4
20260506125535 23 117 1.6 9.7 0.00 0.00 0.00 93 1012.4
20260506125036 23 155 0.0 9.7 0.00 0.00 0.00 93 1012.4
20260506124541 23 91 1.6 9.7 0.00 0.00 0.00 92 1012.4
20260506124037 23 89 1.6 9.7 0.00 0.00 0.00 92 1012.4
20260506123537 23 0 1.6 9.7 0.00 0.00 0.00 92 1012.3
20260506123050 23 0 0.0 6.4 0.00 0.00 0.00 92 1012.3
20260506122536 23 103 1.6 6.4 0.00 0.00 0.00 92 1012.2
20260506122036 23 110 0.0 6.4 0.00 0.00 0.00 92 1012.1
20260506121549 23 0 0.0 6.4 0.00 0.00 0.00 92 1012.1
20260506121036 23 0 0.0 8.0 0.00 0.00 0.00 92 1012.1
20260506120536 23 79 0.0 8.0 0.00 0.00 0.00 92 1012.0
20260506120051 23 0 1.6 6.4 0.00 0.00 0.00 91 1012.2
20260506115537 23 81 1.6 6.4 0.00 0.00 0.00 91 1012.2
20260506115036 23 0 1.6 4.8 0.00 0.00 0.00 92 1012.2
20260506114548 23 104 0.0 6.4 0.00 0.00 0.00 91 1012.3
20260506114036 23 0 0.0 6.4 0.00 0.00 0.00 91 1012.2
20260506113537 23 0 0.0 6.4 0.00 0.00 0.00 91 1012.2
20260506113051 23 0 0.0 6.4 0.00 0.00 0.00 91 1012.1
20260506112537 23 86 0.0 6.4 0.00 0.00 0.00 91 1012.2
20260506112036 23 0 0.0 8.0 0.00 0.00 0.00 91 1012.1
20260506111538 23 109 0.0 8.0 0.00 0.00 0.00 91 1012.0
20260506111036 23 173 0.0 8.0 0.00 0.00 0.00 91 1012.0
20260506110537 23 0 0.0 8.0 0.00 0.00 0.00 91 1012.0
20260506110051 23 129 0.0 9.7 0.00 0.00 0.00 91 1012.0
20260506105536 23 0 1.6 9.7 0.00 0.00 0.00 90 1012.0
20260506105036 23 0 1.6 9.7 0.00 0.00 0.00 90 1012.0
20260506104544 24 153 3.2 9.7 0.00 0.00 0.00 90 1012.0
20260506104036 24 0 0.0 6.4 0.00 0.00 0.00 90 1011.8
20260506103536 24 133 0.0 8.0 0.00 0.00 0.00 90 1011.8
20260506103042 24 0 0.0 9.7 0.00 0.00 0.00 90 1011.8
20260506102535 24 0 1.6 9.7 0.00 0.00 0.00 90 1011.7
20260506102037 23 149 0.0 4.8 0.00 0.00 0.00 90 1011.6
20260506101541 24 0 0.0 4.8 0.00 0.00 0.00 89 1011.4
20260506101031 24 0 0.0 6.4 0.00 0.00 0.00 89 1011.6
20260506100534 24 0 0.0 9.7 0.00 0.00 0.00 88 1011.6
20260506100040 24 163 0.0 9.7 0.00 0.00 0.00 88 1011.7
20260506095534 24 169 1.6 9.7 0.00 0.00 0.00 88 1011.5
20260506095037 24 0 1.6 9.7 0.00 0.00 0.00 88 1011.4
20260506094545 24 136 4.8 11.3 0.00 0.00 0.00 88 1011.3
20260506094039 24 153 3.2 11.3 0.00 0.00 0.00 88 1011.4
20260506093534 24 157 1.6 11.3 0.00 0.00 0.00 87 1011.5
20260506093051 24 153 4.8 12.9 0.00 0.00 0.00 87 1011.5
20260506092535 24 142 1.6 12.9 0.00 0.00 0.00 87 1011.5
20260506092037 25 171 1.6 9.7 0.00 0.00 0.00 87 1011.7
20260506091542 25 0 1.6 11.3 0.00 0.00 0.00 87 1011.8
20260506091035 25 150 3.2 11.3 0.00 0.00 0.00 87 1011.9
20260506090534 25 147 6.4 11.3 0.00 0.00 0.00 87 1011.9
20260506090041 25 145 1.6 12.9 0.00 0.00 0.00 87 1012.0
20260506085534 25 0 3.2 12.9 0.00 0.00 0.00 87 1012.0
20260506085034 25 154 3.2 12.9 0.00 0.00 0.00 87 1012.1
20260506084538 25 157 6.4 12.9 0.00 0.00 0.00 87 1012.1
20260506084036 25 0 1.6 12.9 0.00 0.00 0.00 87 1012.0
20260506083534 25 164 6.4 12.9 0.00 0.00 0.00 87 1012.0
20260506083104 25 148 1.6 12.9 0.00 0.00 0.00 87 1011.9
20260506082536 25 154 3.2 14.5 0.00 0.00 0.00 87 1011.7
20260506082035 25 160 4.8 14.5 0.00 0.00 0.00 87 1011.8
20260506081548 25 154 4.8 14.5 0.00 0.00 0.00 87 1011.8
20260506081035 25 130 4.8 12.9 0.00 0.00 0.00 87 1011.6
20260506080535 25 167 4.8 14.5 0.00 0.00 0.00 87 1011.7
20260506073039 25 202 4.8 12.9 0.00 0.00 0.00 86 1012.0
20260506072534 25 0 6.4 16.1 0.00 0.00 0.00 86 1012.0
20260506072034 25 159 6.4 16.1 0.00 0.00 0.00 86 1011.9
20260506071551 25 169 6.4 14.5 0.00 0.00 0.00 86 1012.1
20260506071034 25 0 6.4 19.3 0.00 0.00 0.00 86 1012.2
20260506070536 25 125 4.8 19.3 0.00 0.00 0.00 86 1012.3
20260506062033 25 169 11.3 27.4 0.00 0.00 0.00 85 1012.3
20260506061542 25 171 8.0 20.9 0.00 0.00 0.00 85 1012.4
20260506061034 25 170 8.0 22.5 0.00 0.00 0.00 85 1012.4
20260506060535 25 117 6.4 25.7 0.00 0.00 0.00 85 1012.3
20260506051034 25 155 8.0 20.9 0.00 0.00 0.00 86 1012.6
20260506050534 25 98 6.4 16.1 0.00 0.00 0.00 86 1012.6
20260506045034 25 76 3.2 19.3 0.00 0.00 0.00 86 1012.5
20260506044539 25 150 4.8 19.3 0.00 0.00 0.00 86 1012.5
20260506044035 25 122 6.4 16.1 0.00 0.00 0.00 86 1012.6
20260506043534 25 130 4.8 16.1 0.00 0.00 0.00 86 1012.6
20260506043044 25 0 4.8 16.1 0.00 0.00 0.00 86 1012.4
20260506042535 25 119 4.8 17.7 0.00 0.00 0.00 86 1012.5
20260506042035 25 134 4.8 19.3 0.00 0.00 0.00 86 1012.4
20260506041542 25 0 3.2 19.3 0.00 0.00 0.00 86 1012.4
20260506041036 25 150 4.8 16.1 0.00 0.00 0.00 85 1012.2
20260506040536 25 0 3.2 19.3 0.00 0.00 0.00 85 1012.1
20260506040041 25 138 6.4 19.3 0.00 0.00 0.00 85 1012.2
20260506035536 25 70 4.8 14.5 0.00 0.00 0.00 85 1012.2
20260506035037 25 84 3.2 19.3 0.00 0.00 0.00 85 1012.2
20260506034551 25 0 6.4 19.3 0.00 0.00 0.00 85 1012.2
20260506034036 25 104 6.4 17.7 0.00 0.00 0.00 85 1012.1
20260506033536 25 145 8.0 17.7 0.00 0.00 0.00 84 1012.0
20260506033049 26 153 4.8 17.7 0.00 0.00 0.00 84 1012.0
20260506032536 26 110 4.8 17.7 0.00 0.00 0.00 84 1012.0
20260506032036 26 172 3.2 14.5 0.00 0.00 0.00 84 1011.9
20260506031542 26 0 4.8 11.3 0.00 0.00 0.00 84 1011.9
20260506031038 26 113 4.8 11.3 0.00 0.00 0.00 84 1011.8
20260506030538 26 0 3.2 12.9 0.00 0.00 0.00 84 1011.7
20260506030042 26 83 3.2 12.9 0.00 0.00 0.00 84 1011.7
20260506025537 26 127 3.2 14.5 0.00 0.00 0.00 83 1011.6
20260506025036 26 153 3.2 14.5 0.00 0.00 0.00 83 1011.5
20260506024550 26 109 4.8 14.5 0.00 0.00 0.00 83 1011.3
20260506024036 26 136 3.2 14.5 0.00 0.00 0.00 83 1011.3
20260506023536 26 159 6.4 14.5 0.00 0.00 0.00 83 1011.3
20260506023047 26 0 6.4 14.5 0.00 0.00 0.00 83 1011.1
20260506022536 26 68 3.2 14.5 0.00 0.00 0.00 83 1010.9
20260506022036 26 93 6.4 16.1 0.00 0.00 0.00 82 1010.7
20260506021547 26 111 6.4 16.1 0.00 0.00 0.00 82 1010.6
20260506021036 26 84 6.4 16.1 0.00 0.00 0.00 82 1010.5
20260506020536 26 123 4.8 16.1 0.00 0.00 0.00 81 1010.5
20260506020050 27 96 4.8 19.3 0.00 0.00 0.00 81 1010.3
20260506015538 27 96 6.4 19.3 0.00 0.00 0.00 80 1010.3
20260506015037 27 77 6.4 17.7 0.00 0.00 0.00 80 1010.4
20260506014541 27 100 6.4 17.7 0.00 0.00 0.00 80 1010.3
20260506014036 27 84 4.8 17.7 0.00 0.00 0.00 80 1010.4
20260506013536 27 92 4.8 17.7 0.00 0.00 0.00 79 1010.4
20260506013048 27 69 6.4 17.7 0.00 0.00 0.00 79 1010.2
20260506012536 27 108 9.7 17.7 0.00 0.00 0.00 79 1010.1
20260506012035 27 86 8.0 17.7 0.00 0.00 0.00 78 1010.1
20260506011610 27 115 4.8 11.3 0.00 0.00 0.00 78 1010.1
20260506011036 28 0 1.6 9.7 0.00 0.00 0.00 78 1009.9
20260506010537 28 0 3.2 17.7 0.00 0.00 0.00 77 1009.8
20260506010047 28 155 8.0 19.3 0.00 0.00 0.00 76 1009.7